Torna al catalogo

BRO-21

AttivoComunicazioniSSO
NORAD 69007·PAYLOAD·🇫🇷 France

Lanciato May 3, 2026 da Vandenberg Space Force Base

Loading…

Prossimi Passaggi (prossime 24 ore)

TLE

AggiornatoSource: Space-Track

Epoca: Sep 14, 2026, 03:53 UTC

1 69007U 26100AD  26257.16226384  .00002278  00000-0  10308-3 0  9999
2 69007  97.3915 153.5678 0009582 100.5161 259.7155 15.21885837 20331

Traccia BRO-21 in tempo reale con AllMySat

Download on the App Store